FW7924 Weather Reports


time (UTC)temp
F
wind
direction
speed
knots
gust
knots
rain 1hr
in
rain 24hr
in
rain mn
in
humidity
%
barometer
mb
20260905222502 71 113 0.0 0.0 0.00 0.00 0.00 77 1013.3
20260905221957 71 113 0.0 0.0 0.00 0.00 0.00 78 1013.0
20260905221454 71 113 0.0 0.0 0.00 0.00 0.00 77 1013.0
20260905220949 71 113 0.0 0.0 0.00 0.00 0.00 76 1013.1
20260905220445 71 113 0.0 0.0 0.00 0.00 0.00 78 1013.1
20260905215944 71 112 0.0 0.9 0.00 0.00 0.00 75 1013.0
20260905215440 71 113 0.0 0.0 0.00 0.00 0.00 78 1013.1
20260905214936 71 113 0.0 0.0 0.00 0.00 0.00 77 1012.9
20260905214432 72 113 0.0 0.0 0.00 0.00 0.00 77 1013.0
20260905213932 72 112 0.9 0.9 0.00 0.00 0.00 75 1012.8
20260905213428 72 112 0.0 0.9 0.00 0.00 0.00 77 1012.8
20260905212923 72 112 0.9 0.9 0.00 0.00 0.00 74 1012.8
20260905212418 72 129 0.0 0.9 0.00 0.00 0.00 77 1012.8
20260905211917 72 112 0.0 0.0 0.00 0.00 0.00 76 1013.0
20260905211413 73 112 0.0 0.9 0.00 0.00 0.00 74 1012.8
20260905210909 73 112 0.0 0.9 0.00 0.00 0.00 75 1012.4
20260905210409 73 112 0.9 0.9 0.00 0.00 0.00 75 1012.4
20260905205908 73 98 0.0 0.9 0.00 0.00 0.00 74 1012.3
20260905205403 73 124 0.0 0.0 0.00 0.00 0.00 74 1012.5
20260905204902 73 314 0.0 0.9 0.00 0.00 0.00 73 1012.5
20260905204358 73 315 0.0 0.0 0.00 0.00 0.00 72 1012.3
20260905203857 73 224 1.7 2.6 0.00 0.00 0.00 72 1012.4
20260905203353 73 160 0.9 0.9 0.00 0.00 0.00 74 1012.3
20260905202848 73 160 0.0 0.9 0.00 0.00 0.00 73 1012.3
20260905202343 73 169 0.9 1.7 0.00 0.00 0.00 72 1012.4
20260905201839 73 82 0.0 1.7 0.00 0.00 0.00 72 1012.5
20260905201334 73 81 0.0 0.9 0.00 0.00 0.00 72 1012.4
20260905200828 73 81 0.0 0.9 0.00 0.00 0.00 72 1012.2
20260905200326 73 81 0.0 0.9 0.00 0.00 0.00 72 1012.4
20260905195822 74 81 0.0 1.7 0.00 0.00 0.00 73 1012.3
20260905195317 75 81 0.9 0.9 0.00 0.00 0.00 70 1012.5
20260905194813 73 81 0.0 0.0 0.00 0.00 0.00 72 1012.0
20260905194313 73 80 0.0 0.0 0.00 0.00 0.00 74 1012.3
20260905193812 73 80 0.0 0.0 0.00 0.00 0.00 73 1012.3
20260905193307 73 80 0.0 0.9 0.00 0.00 0.00 75 1012.4
20260905192802 73 80 0.0 0.0 0.00 0.00 0.00 72 1012.2
20260905192258 74 80 0.9 0.9 0.00 0.00 0.00 73 1012.4
20260905191757 74 80 0.0 0.0 0.00 0.00 0.00 72 1012.2
20260905191256 74 80 0.0 0.9 0.00 0.00 0.00 69 1012.1
20260905190755 74 80 0.0 0.0 0.00 0.00 0.00 73 1012.3
20260905190254 73 80 0.0 0.0 0.00 0.00 0.00 74 1012.5
20260905185754 73 80 0.0 0.9 0.00 0.00 0.00 74 1012.4
20260905185249 73 80 0.0 0.0 0.00 0.00 0.00 75 1012.3
20260905184748 74 80 0.0 0.0 0.00 0.00 0.00 73 1012.2
20260905184242 75 80 0.0 0.0 0.00 0.00 0.00 70 1012.2
20260905183741 74 80 0.0 0.0 0.00 0.00 0.00 72 1012.2
20260905183237 74 80 0.0 0.0 0.00 0.00 0.00 74 1012.0
20260905182731 74 80 0.0 0.0 0.00 0.00 0.00 76 1012.5
20260905182230 74 80 0.0 0.0 0.00 0.00 0.00 71 1012.2
20260905181726 73 80 0.0 0.0 0.00 0.00 0.00 72 1012.4
20260905181224 73 80 0.0 0.0 0.00 0.00 0.00 72 1012.6
20260905180719 72 80 0.0 0.0 0.00 0.00 0.00 76 1012.7
20260905180215 72 80 0.0 0.0 0.00 0.00 0.00 78 1012.4
20260905175715 72 80 0.0 0.0 0.00 0.00 0.00 79 1012.5
20260905175209 71 79 0.0 0.0 0.00 0.00 0.00 77 1012.7
20260905174705 72 79 0.0 0.9 0.00 0.00 0.00 76 1012.7
20260905174200 72 129 0.0 0.0 0.00 0.00 0.00 72 1012.7
20260905173656 73 129 0.0 0.9 0.00 0.00 0.00 71 1012.5
20260905173152 74 129 0.9 1.7 0.00 0.00 0.00 68 1012.6
20260905172651 75 53 0.0 4.3 0.00 0.00 0.00 66 1012.4
20260905172145 76 173 0.0 0.9 0.00 0.00 0.00 67 1012.6
20260905171641 76 124 0.9 0.9 0.00 0.00 0.00 65 1012.6
20260905171137 75 45 0.9 2.6 0.00 0.00 0.00 65 1012.7
20260905170634 74 115 0.0 0.0 0.00 0.00 0.00 70 1012.7
20260905170129 73 114 0.9 0.9 0.00 0.00 0.00 69 1012.5
20260905165623 73 14 1.7 2.6 0.00 0.00 0.00 69 1012.5
20260905165119 73 95 0.0 2.6 0.00 0.00 0.00 71 1012.5
20260905164614 74 89 0.0 0.9 0.00 0.00 0.00 69 1012.5
20260905164113 74 86 2.6 2.6 0.00 0.00 0.00 67 1012.4
20260905163609 74 133 0.9 4.3 0.00 0.00 0.00 68 1012.5
20260905163105 73 1 0.0 2.6 0.00 0.00 0.00 68 1012.7
20260905162601 72 105 0.0 0.9 0.00 0.00 0.00 70 1012.4
20260905162055 73 106 0.0 0.0 0.00 0.00 0.00 70 1012.8
20260905161555 73 20 0.9 1.7 0.00 0.00 0.00 67 1012.5
20260905161053 74 86 0.9 0.9 0.00 0.00 0.00 68 1012.4
20260905160552 74 73 2.6 4.3 0.00 0.00 0.00 66 1012.5
20260905160052 73 93 0.9 1.7 0.00 0.00 0.00 69 1012.3
20260905155551 73 56 0.9 1.7 0.00 0.00 0.00 69 1012.3
20260905155050 73 281 0.0 1.7 0.00 0.00 0.00 70 1012.4
20260905154545 73 330 0.9 1.7 0.00 0.00 0.00 69 1012.3
20260905154041 74 171 0.0 4.3 0.00 0.00 0.00 68 1012.3
20260905153537 75 58 3.5 5.2 0.00 0.00 0.00 66 1012.3
20260905153036 75 78 1.7 5.2 0.00 0.00 0.00 65 1012.5
20260905152531 74 103 0.9 5.2 0.00 0.00 0.00 65 1012.5
20260905152026 74 18 0.9 4.3 0.00 0.00 0.00 67 1012.8
20260905151521 75 72 1.7 2.6 0.00 0.00 0.00 64 1012.5
20260905151017 73 340 0.9 2.6 0.00 0.00 0.00 68 1012.7
20260905150512 74 134 0.0 4.3 0.00 0.00 0.00 67 1012.4
20260905150010 74 131 0.9 2.6 0.00 0.00 0.00 66 1012.6
20260905145503 75 96 0.9 0.9 0.00 0.00 0.00 68 1012.6
20260905145003 74 245 0.9 1.7 0.00 0.00 0.00 68 1012.5
20260905144458 75 45 0.0 1.7 0.00 0.00 0.00 66 1012.7
20260905143957 74 134 0.9 5.2 0.00 0.00 0.00 67 1012.6
20260905143455 73 130 0.0 4.3 0.00 0.00 0.00 69 1012.4
20260905142951 73 167 0.9 5.2 0.00 0.00 0.00 70 1012.5
20260905142449 73 122 0.0 2.6 0.00 0.00 0.00 72 1012.3
20260905141945 73 113 0.0 1.7 0.00 0.00 0.00 69 1012.7
20260905141440 73 173 0.9 1.7 0.00 0.00 0.00 69 1012.5
20260905140936 72 100 1.7 4.3 0.00 0.00 0.00 70 1012.5
20260905140431 72 13 0.9 1.7 0.00 0.00 0.00 71 1012.6
20260905135930 72 13 0.9 1.7 0.00 0.00 0.00 71 1012.5
20260905135426 72 179 2.6 4.3 0.00 0.00 0.00 70 1012.7
20260905134921 71 331 0.9 5.2 0.00 0.00 0.00 74 1012.9
20260905134420 70 50 3.5 5.2 0.00 0.00 0.00 75 1012.7
20260905133914 70 170 0.9 1.7 0.00 0.00 0.00 77 1012.9
20260905133409 70 144 0.0 0.0 0.00 0.00 0.00 77 1012.6
20260905132909 68 145 0.0 0.0 0.00 0.00 0.00 79 1012.8
20260905132404 66 139 0.0 0.0 0.00 0.00 0.00 83 1012.9
20260905131859 66 151 0.9 0.9 0.00 0.00 0.00 84 1012.8
20260905131354 65 113 0.0 0.0 0.00 0.00 0.00 85 1013.0
20260905130849 65 114 0.0 0.0 0.00 0.00 0.00 86 1012.9
20260905130348 64 105 0.0 0.0 0.00 0.00 0.00 88 1012.9
20260905125843 62 138 0.0 0.0 0.00 0.00 0.00 91 1013.1
20260905125338 62 138 0.0 0.0 0.00 0.00 0.00 92 1013.1
20260905124834 62 138 0.0 0.0 0.00 0.00 0.00 93 1013.0
20260905124330 62 138 0.0 0.0 0.00 0.00 0.00 94 1013.2
20260905123824 62 138 0.0 0.0 0.00 0.00 0.00 95 1013.3
20260905123322 62 139 0.0 0.0 0.00 0.00 0.00 96 1013.0
20260905122821 62 139 0.0 0.0 0.00 0.00 0.00 96 1013.2
20260905122320 62 139 0.0 0.0 0.00 0.00 0.00 96 1013.2
20260905121816 61 139 0.0 0.0 0.00 0.00 0.00 96 1013.1
20260905121313 61 139 0.0 0.0 0.00 0.00 0.00 97 1013.2
20260905120811 60 139 0.0 0.0 0.00 0.00 0.00 97 1013.0
20260905120306 60 138 0.0 0.0 0.00 0.00 0.00 97 1013.1
20260905115801 59 139 0.0 0.0 0.00 0.00 0.00 97 1013.1
20260905115300 59 139 0.0 0.9 0.00 0.00 0.00 97 1013.1
20260905114759 59 139 0.0 0.0 0.00 0.00 0.00 97 1013.1
20260905114259 58 138 0.0 0.0 0.00 0.00 0.00 97 1012.9
20260905113753 58 140 0.0 0.0 0.00 0.00 0.00 97 1012.9
20260905113248 58 138 0.0 0.0 0.00 0.00 0.00 97 1012.8
20260905112743 58 139 0.0 0.0 0.00 0.00 0.00 97 1012.6
20260905112244 57 138 0.0 0.0 0.00 0.00 0.00 97 1012.6
20260905111739 57 139 0.0 0.0 0.00 0.00 0.00 97 1012.6
20260905111233 57 139 0.0 0.0 0.00 0.00 0.00 97 1012.7
20260905110732 57 138 0.0 0.0 0.00 0.00 0.00 97 1012.5
20260905110227 57 139 0.0 0.0 0.00 0.00 0.00 97 1012.5
20260905105722 57 138 0.0 0.0 0.00 0.00 0.00 97 1012.6
20260905105221 56 138 0.0 0.0 0.00 0.00 0.00 97 1012.2
20260905104716 56 138 0.0 0.0 0.00 0.00 0.00 97 1012.4
20260905104212 56 139 0.0 0.0 0.00 0.00 0.00 97 1012.0
20260905103707 56 145 0.0 0.0 0.00 0.00 0.00 97 1012.1
20260905103203 56 145 0.0 0.0 0.00 0.00 0.00 97 1012.2
20260905102658 56 146 0.0 0.0 0.00 0.00 0.00 97 1011.9
20260905102155 56 140 0.0 0.0 0.00 0.00 0.00 97 1011.8
20260905101653 57 139 0.0 0.0 0.00 0.00 0.00 97 1012.0
20260905101152 57 139 0.0 0.0 0.00 0.00 0.00 97 1011.9
20260905100648 57 139 0.0 0.0 0.00 0.00 0.00 97 1012.1
20260905100143 57 139 0.0 0.0 0.00 0.00 0.00 97 1011.8
20260905095642 57 140 0.0 0.0 0.00 0.00 0.00 97 1011.9
20260905095137 57 139 0.0 0.0 0.00 0.00 0.00 97 1011.9
20260905094632 57 139 0.0 0.0 0.00 0.00 0.00 97 1012.0
20260905094131 57 139 0.0 0.0 0.00 0.00 0.00 97 1011.9
20260905093626 57 142 0.0 0.0 0.00 0.00 0.00 97 1012.1
20260905093123 57 142 0.0 0.0 0.00 0.00 0.00 97 1011.8
20260905092622 57 142 0.0 0.0 0.00 0.00 0.00 97 1011.9
20260905092119 57 140 0.0 0.0 0.00 0.00 0.00 97 1011.7
20260905091618 57 139 0.0 0.0 0.00 0.00 0.00 97 1011.8
20260905091112 57 139 0.0 0.0 0.00 0.00 0.00 97 1011.9
20260905090612 57 139 0.0 0.0 0.00 0.00 0.00 97 1012.1
20260905090108 57 139 0.0 0.0 0.00 0.00 0.00 97 1011.8
20260905085606 57 139 0.0 0.0 0.00 0.00 0.00 96 1012.0
20260905085103 57 139 0.0 0.0 0.00 0.00 0.00 96 1012.0
20260905084601 57 139 0.0 0.0 0.00 0.00 0.00 96 1011.9
20260905084057 57 140 0.0 0.0 0.00 0.00 0.00 96 1012.1
20260905083551 57 140 0.0 0.0 0.00 0.00 0.00 96 1012.1
20260905083048 57 140 0.0 0.0 0.00 0.00 0.00 96 1011.9
20260905082543 57 140 0.0 0.0 0.00 0.00 0.00 96 1012.0
20260905082039 57 140 0.0 0.0 0.00 0.00 0.00 96 1012.0
20260905081538 57 139 0.0 0.0 0.00 0.00 0.00 96 1011.9
20260905081033 58 139 0.0 0.0 0.00 0.00 0.00 96 1012.1
20260905080532 58 139 0.0 0.0 0.00 0.00 0.00 96 1012.0
20260905080028 58 139 0.0 0.0 0.00 0.00 0.00 96 1012.1
20260905075521 58 138 0.0 0.0 0.00 0.00 0.00 96 1012.2
20260905075021 58 138 0.0 0.0 0.00 0.00 0.00 96 1012.3
20260905074515 58 139 0.0 0.0 0.00 0.00 0.00 96 1011.9
20260905074011 58 139 0.0 0.0 0.00 0.00 0.00 95 1012.2
20260905073500 58 140 0.0 0.0 0.00 0.00 0.00 95 1012.0
20260905072955 58 142 0.0 0.0 0.00 0.00 0.00 95 1012.1
20260905072455 59 144 0.0 0.0 0.00 0.00 0.00 95 1012.1
20260905071952 59 145 0.0 0.0 0.00 0.00 0.00 95 1012.1
20260905071449 59 146 0.0 0.0 0.00 0.00 0.00 95 1012.0
20260905070948 59 147 0.0 0.0 0.00 0.00 0.00 95 1012.0
20260905070444 59 146 0.0 0.0 0.00 0.00 0.00 95 1012.1
20260905065944 59 146 0.0 0.0 0.00 0.00 0.00 95 1012.2
20260905065441 59 146 0.0 0.0 0.00 0.00 0.00 95 1012.2
20260905064937 59 146 0.0 0.0 0.00 0.00 0.00 95 1012.4
20260905064432 59 146 0.0 0.0 0.00 0.00 0.00 95 1012.1
20260905063927 59 146 0.0 0.0 0.00 0.00 0.00 95 1012.2
20260905063422 59 146 0.0 0.0 0.00 0.00 0.00 95 1012.1
20260905062918 59 146 0.0 0.0 0.00 0.00 0.00 95 1012.3
20260905062412 59 146 0.0 0.0 0.00 0.00 0.00 95 1012.4
20260905061907 59 146 0.0 0.0 0.00 0.00 0.00 95 1012.3
20260905061406 59 146 0.0 0.0 0.00 0.00 0.00 95 1012.4
20260905060901 59 146 0.0 0.0 0.00 0.00 0.00 95 1012.4
20260905060358 60 146 0.0 0.0 0.00 0.00 0.00 95 1012.6
20260905055856 60 147 0.0 0.0 0.00 0.00 0.00 95 1012.7
20260905055352 60 149 0.0 0.0 0.00 0.00 0.00 94 1012.7
20260905054851 60 147 0.0 0.0 0.00 0.00 0.00 94 1012.9
20260905054347 60 147 0.0 0.0 0.00 0.00 0.00 94 1012.8
20260905053847 60 147 0.0 0.0 0.00 0.00 0.00 94 1012.8
20260905053342 60 151 0.0 0.0 0.00 0.00 0.00 94 1012.9
20260905052837 60 147 0.0 0.0 0.00 0.00 0.00 94 1012.7
20260905052337 60 147 0.0 0.0 0.00 0.00 0.00 93 1012.9
20260905051836 60 148 0.0 0.0 0.00 0.00 0.00 93 1013.0
20260905051332 61 147 0.0 0.0 0.00 0.00 0.00 93 1013.1
20260905050829 61 147 0.0 0.0 0.00 0.00 0.00 93 1012.9
20260905050325 61 148 0.0 0.0 0.00 0.00 0.00 92 1013.0
20260905045820 61 147 0.0 0.0 0.00 0.00 0.00 92 1013.0
20260905045315 61 148 0.0 0.0 0.00 0.00 0.00 92 1012.9
20260905044810 61 148 0.0 0.0 0.00 0.00 0.00 92 1013.1
20260905044306 61 147 0.0 0.0 0.00 0.00 0.00 91 1013.1
20260905043804 62 147 0.0 0.0 0.00 0.00 0.00 91 1013.2
20260905043259 62 147 0.0 0.0 0.00 0.00 0.00 91 1013.3
20260905042759 62 147 0.0 0.0 0.00 0.00 0.00 91 1012.9
20260905042259 62 148 0.0 0.0 0.00 0.00 0.00 90 1013.1
20260905041754 62 148 0.0 0.0 0.00 0.00 0.00 90 1013.1
20260905041249 62 149 0.0 0.9 0.00 0.00 0.00 90 1013.0
20260905040744 63 149 0.0 0.0 0.00 0.00 0.00 89 1013.1
20260905040243 63 150 0.0 0.0 0.00 0.00 0.00 88 1013.0
20260905035738 63 150 0.0 0.0 0.00 0.10 0.10 89 1013.0
20260905035234 62 149 0.0 0.0 0.00 0.10 0.10 90 1012.9
20260905034731 63 150 0.0 0.0 0.00 0.10 0.10 89 1012.7
20260905034230 63 163 0.9 1.7 0.00 0.10 0.10 88 1012.9
20260905033730 64 165 0.9 1.7 0.00 0.10 0.10 87 1013.0
20260905033225 64 160 1.7 1.7 0.00 0.10 0.10 86 1012.7
20260905032724 64 156 0.9 1.7 0.00 0.10 0.10 85 1012.9
20260905032220 64 152 1.7 1.7 0.00 0.10 0.10 85 1012.8
20260905031715 65 154 0.9 1.7 0.00 0.10 0.10 85 1012.7
20260905031210 65 151 0.9 1.7 0.00 0.10 0.10 85 1012.9
20260905030705 64 155 0.0 0.0 0.00 0.10 0.10 86 1012.8
20260905030201 65 157 0.0 0.0 0.00 0.10 0.10 86 1013.1
20260905025655 65 155 0.0 0.0 0.00 0.10 0.10 86 1012.7
20260905025151 64 151 0.0 0.0 0.00 0.10 0.10 88 1012.8
20260905024647 63 153 0.0 0.0 0.00 0.10 0.10 92 1012.9
20260905024142 63 155 0.0 0.0 0.00 0.10 0.10 92 1012.9
20260905023637 63 150 0.0 0.0 0.00 0.10 0.10 92 1012.9
20260905023137 63 152 0.0 0.0 0.00 0.10 0.10 93 1012.8
20260905022636 63 150 0.0 0.0 0.00 0.10 0.10 93 1013.0
20260905022131 64 147 0.0 0.0 0.00 0.10 0.10 93 1013.1
20260905021626 64 151 0.0 0.0 0.00 0.10 0.10 92 1013.0
20260905021121 64 151 0.0 0.0 0.00 0.10 0.10 93 1012.8
20260905020621 64 155 0.0 0.0 0.00 0.10 0.10 92 1013.0
20260905020116 64 153 0.0 0.0 0.00 0.10 0.10 92 1012.9
20260905015615 64 156 0.0 0.0 0.00 0.10 0.10 93 1013.0
20260905015115 64 153 0.0 0.0 0.00 0.10 0.10 93 1012.9
20260905014609 64 152 0.0 0.0 0.00 0.10 0.10 93 1013.0
20260905014105 64 148 0.0 0.0 0.00 0.10 0.10 93 1013.0
20260905013601 64 147 0.0 0.0 0.00 0.10 0.10 93 1013.2
20260905013057 64 143 0.0 0.0 0.00 0.10 0.10 93 1013.2
20260905012556 64 144 0.0 0.0 0.00 0.10 0.10 93 1013.0
20260905012054 65 143 0.0 0.0 0.00 0.10 0.10 93 1013.1
20260905011549 65 144 0.0 0.0 0.00 0.10 0.10 92 1013.0
20260905011045 65 143 0.0 0.0 0.00 0.10 0.10 92 1012.9
20260905010544 65 143 0.0 0.0 0.00 0.10 0.10 91 1013.3
20260905010041 66 143 0.0 0.0 0.00 0.10 0.10 91 1013.3
20260905005536 66 143 0.0 0.0 0.00 0.10 0.10 90 1013.3
20260905005031 67 148 0.0 0.0 0.00 0.10 0.10 89 1013.4
20260905004526 67 144 0.0 0.0 0.00 0.10 0.10 88 1013.3
20260905004021 67 147 0.0 0.0 0.00 0.10 0.10 88 1013.2
20260905003517 67 144 0.0 0.0 0.00 0.10 0.10 88 1013.2
20260905003013 66 144 0.0 0.0 0.00 0.10 0.10 89 1013.1
20260905002507 66 144 0.0 0.0 0.00 0.10 0.10 89 1013.2
20260905002002 67 144 0.0 0.0 0.00 0.10 0.10 89 1013.1
20260905001456 67 141 0.0 0.0 0.00 0.10 0.10 89 1013.2
20260905000951 67 140 0.0 0.0 0.00 0.10 0.10 88 1013.1
20260905000447 67 142 0.0 0.0 0.00 0.10 0.10 88 1012.8
20260904235942 68 142 0.0 0.0 0.00 0.10 0.10 87 1012.6
20260904235438 68 157 0.0 0.0 0.00 0.10 0.10 87 1012.9
20260904234932 68 199 0.0 0.0 0.00 0.10 0.10 87 1012.7
20260904234431 68 199 0.0 0.0 0.00 0.10 0.10 86 1012.6
20260904233928 69 199 0.0 0.0 0.00 0.10 0.10 85 1012.7
20260904233423 69 200 0.0 0.0 0.00 0.10 0.10 83 1012.8
20260904232919 69 200 0.0 0.0 0.00 0.10 0.10 82 1012.7
20260904232415 70 200 0.0 0.0 0.00 0.10 0.10 82 1012.7
20260904231912 70 200 0.0 0.0 0.00 0.10 0.10 81 1012.7
20260904231407 71 200 0.0 0.0 0.00 0.10 0.10 81 1012.7
20260904230902 71 200 0.0 0.0 0.00 0.10 0.10 80 1012.4
20260904230400 72 200 0.0 0.0 0.00 0.10 0.10 78 1012.8
20260904225855 72 200 0.0 0.9 0.00 0.10 0.10 77 1012.7
20260904225353 73 200 0.9 0.9 0.00 0.10 0.10 75 1012.7
20260904224848 75 200 0.9 1.7 0.00 0.10 0.10 72 1012.8
20260904224343 76 201 0.0 0.0 0.00 0.10 0.10 72 1012.8
20260904223842 76 201 0.0 1.7 0.00 0.10 0.10 69 1012.8
20260904223337 77 201 0.9 1.7 0.00 0.10 0.10 67 1012.8